Flag for Canada Weather past 2 weeks in Qikiqtarjuaq, Nunavut, Canada

Now
12 °F

Overcast.


Feels Like: 12 °F
Forecast: 7 / 20 °F
Wind: No wind

Location: Broughton Island Airport

Current Time: May 4, 2015 at 3:16:04 AM

Latest Report: May 4, 2015 at 2:00 AM


Visibility: 9 mi

Pressure: 29.92 "Hg

Humidity: 92%

Dew point: 10 °F

Location of QikiqtarjuaqLocation

Historic Weather in Qikiqtarjuaq — Graph

°F

Qikiqtarjuaq temperature yesterday

Maximum temperature yesterday: 19 °F (at 2:00 PM)
Minimum temperature yesterday: 10 °F (at 9:00 PM)
Average temperature yesterday: 15 °F

Past Weeks' High & Low Weather Summary

 TemperatureHumidityPressure
High25 °F (Apr 25, 1:00 PM)92% (Apr 21, 7:00 PM)30.88 "Hg (Apr 21, 7:00 PM)
Low-11 °F (Apr 22, 7:00 AM)41% (Apr 25, 9:00 AM)29.84 "Hg (Apr 19, 2:00 AM)
Average7 °F80%30.30 "Hg
* Reported Apr 19 2:00 AM — May 4 2:00 AM, Qikiqtarjuaq, Weather by CustomWeather, © 2015

Note: Actual official high and low records may vary slightly from our data, if they occured in-between our weather recording intervals... More about our weather records

Advertising

Qikiqtarjuaq weather history for previous 24 hours

 ConditionsComfort  
Time TempWeatherWind HumidityBarometerVisibility
2:00 AM
Mon, May 4
12 °FOvercast.No wind92%29.92 "Hg9 mi
1:00 AM12 °FOvercast.No wind85%29.91 "Hg9 mi
12:00 AM12 °FOvercast.No wind85%29.92 "Hg9 mi
11:00 PM
Sun, May 3
12 °FOvercast.3 mph85%29.93 "Hg9 mi
10:00 PM10 °FOvercast.3 mph85%29.93 "Hg9 mi
9:00 PM10 °FOvercast.2 mph85%29.93 "Hg9 mi
8:00 PM12 °FOvercast.3 mph85%29.93 "Hg9 mi
7:00 PM16 °FSunny.8 mph79%29.93 "Hg9 mi
6:00 PM18 °FMostly cloudy.7 mph79%29.92 "Hg9 mi
5:00 PM18 °FBroken clouds.9 mph86%29.92 "Hg9 mi
4:00 PM19 °FPartly sunny.12 mph73%29.91 "Hg9 mi
3:00 PM19 °FPassing clouds.8 mph79%29.91 "Hg9 mi
2:00 PM19 °FPassing clouds.5 mph79%29.90 "Hg9 mi
1:00 PM18 °FLight snow. Cloudy.5 mph79%29.89 "Hg12 mi
12:00 PM18 °FMore clouds than sun.6 mph79%29.89 "Hg15 mi
11:00 AM18 °FOvercast.7 mph79%29.88 "Hg15 mi
10:00 AM16 °FLight snow. Broken clouds.10 mph79%29.87 "Hg15 mi
9:00 AM16 °FLight snow. Cloudy.9 mph86%29.87 "Hg15 mi
8:00 AM14 °FLight snow. More clouds than sun.10 mph85%29.86 "Hg12 mi
7:00 AM14 °FLight snow. Cloudy.10 mph85%29.86 "Hg9 mi
6:00 AM14 °FLight snow. Overcast.10 mph92%29.85 "Hg3 mi
5:57 AM14 °FLight snow. Overcast.10 mph92%29.85 "Hg3 mi
5:00 AM14 °FLight snow. Cloudy.9 mph85%29.85 "Hg9 mi
4:00 AM14 °FLight snow. Overcast.8 mph92%29.85 "Hg9 mi
3:00 AM14 °FLight snow. Mostly cloudy.8 mph85%29.86 "Hg5 mi
Weather by CustomWeather, © 2015

See weather overviewHow to use our weather pages